Stations météo

réclame
Mon MeteoGroup
Aviemore, Grande-Bretagne (3063): Température de l'air & dewpoint: 13.10.2018 11:00:00 - 19.10.2018 11:00:00 (BST)Aviemore, Grande-Bretagne (3063): Température de l'air -20cm & Température de l'air -100cm: 13.10.2018 11:00:00 - 19.10.2018 11:00:00 (BST)Aviemore, Grande-Bretagne (3063): Vitesse du vent & gusts: 13.10.2018 11:00:00 - 19.10.2018 11:00:00 (BST)Aviemore, Grande-Bretagne (3063): Direction du vent: 13.10.2018 11:00:00 - 19.10.2018 11:00:00 (BST)Aviemore, Grande-Bretagne (3063): reduced air pressure: 13.10.2018 11:00:00 - 19.10.2018 11:00:00 (BST)Aviemore, Grande-Bretagne (3063): visibility: 13.10.2018 11:00:00 - 19.10.2018 11:00:00 (BST)Aviemore, Grande-Bretagne (3063): Ensoleillement: 13.10.2018 11:00:00 - 19.10.2018 11:00:00 (BST)Aviemore, Grande-Bretagne (3063): Quantités de précipitations: 13.10.2018 11:00:00 - 19.10.2018 11:00:00 (BST)
Date & Time tt [°C] td [°C] tt -20cm [°C] tt -100cm [°C] ff [km/h] ff [knt] fx [km/h] fx [knt] dd ppp [hPa] vv [km] sd [min] rr [mm]
19.10.2018 11:00:00 - - - - - - - - - - - - -
19.10.2018 10:00:00 8,8 5,3 9,0 10,4 16 9 - - SSW 1017,2 30 0 0,0
19.10.2018 09:00:00 8,4 3,8 - - 16 9 - - SSW 1017,3 35 6 0,0
19.10.2018 08:00:00 8,1 3,4 - - 11 6 - - SSW 1016,7 40 0 0,0
19.10.2018 07:00:00 8,4 3,3 - - 16 9 - - SSW 1017,0 40 0 0,0
19.10.2018 06:00:00 8,4 3,3 - - 13 7 - - SSW 1017,3 35 0 0,0
19.10.2018 05:00:00 8,3 3,0 - - 16 9 48 26 SSW 1018,0 40 0 0,0
19.10.2018 04:00:00 7,8 3,0 - - 8 4 48 26 SSW 1019,3 40 0 0,0
19.10.2018 03:00:00 7,9 2,9 - - 15 8 50 27 SSW 1019,7 45 0 0,0
19.10.2018 02:00:00 7,6 2,6 - - 13 7 - - SSW 1020,5 45 0 0,0
19.10.2018 01:00:00 7,7 2,6 - - 13 7 - - SSW 1021,6 45 - 0,0
19.10.2018 00:00:00 7,8 3,3 - - 13 7 - - SSW 1022,4 45 0 0,0
18.10.2018 23:00:00 7,7 3,7 - - 9 5 - - SSW 1023,4 40 0 0,0
18.10.2018 22:00:00 7,8 3,8 - - 11 6 - - SSW 1023,5 40 0 0,0
18.10.2018 21:00:00 8,3 4,0 - - 11 6 - - S 1023,7 45 0 0,0
18.10.2018 20:00:00 8,1 3,8 - - 4 2 - - SW 1024,4 45 0 0,0
18.10.2018 19:00:00 8,6 4,0 - - 5 3 - - SW 1024,9 50 0 0,0
18.10.2018 18:00:00 8,9 4,0 - - 4 2 - - SW 1025,0 50 0 0,0
18.10.2018 17:00:00 9,5 4,0 - - 5 3 - - SW 1025,4 45 0 0,0
18.10.2018 16:00:00 9,8 3,8 - - 5 3 - - SW 1025,3 45 0 0,0
18.10.2018 15:00:00 9,9 3,7 - - 5 3 - - SSW 1026,2 40 0 0,0
18.10.2018 14:00:00 9,8 3,4 - - 5 3 - - SSW 1026,7 40 0 0,0
18.10.2018 13:00:00 9,9 3,9 - - 5 3 - - SSW 1026,9 35 0 0,0
18.10.2018 12:00:00 8,9 4,0 - - 8 4 - - SSW 1027,2 40 0 0,0
18.10.2018 11:00:00 8,5 4,5 - - 8 4 - - SSW 1027,7 35 12 0,0
18.10.2018 10:00:00 5,9 4,2 9,0 10,7 4 2 - - SW 1027,9 20 0 0,0
18.10.2018 09:00:00 3,9 3,2 - - 4 2 - - NNE 1027,9 18 0 0,0
18.10.2018 08:00:00 2,5 2,3 - - 4 2 - - NW 1028,1 18 0 0,0
18.10.2018 07:00:00 1,6 1,3 - - 2 1 - - SE 1027,9 16 0 0,0
18.10.2018 06:00:00 1,5 1,1 - - 2 1 - - NNE 1027,5 15 0 0,0
18.10.2018 05:00:00 2,2 1,7 - - 2 1 - - NNE 1027,1 18 0 0,0
18.10.2018 04:00:00 1,7 1,3 - - 4 2 - - SW 1027,1 14 0 0,0
18.10.2018 03:00:00 1,5 0,8 - - 2 1 - - E 1026,8 17 0 0,0
18.10.2018 02:00:00 3,1 2,2 - - 8 4 - - WSW 1026,4 21 0 0,0
18.10.2018 01:00:00 1,9 0,7 - - 4 2 - - W 1026,3 21 - 0,0
18.10.2018 00:00:00 4,2 2,7 - - 5 3 - - WSW 1025,8 20 0 0,0
17.10.2018 23:00:00 2,5 1,7 - - 4 2 - - N 1025,4 20 0 0,0
17.10.2018 22:00:00 4,7 2,7 - - 5 3 - - SW 1024,9 21 0 0,0
17.10.2018 21:00:00 5,6 3,6 - - 4 2 - - SW 1024,0 23 0 0,0
17.10.2018 20:00:00 4,9 2,2 - - 5 3 - - WSW 1023,2 24 0 0,0
17.10.2018 19:00:00 5,8 2,7 - - 5 3 - - WSW 1022,0 26 0 0,0
17.10.2018 18:00:00 7,4 3,1 - - 5 3 - - WSW 1020,9 26 0 0,0
17.10.2018 17:00:00 9,1 2,9 - - 5 3 - - WSW 1019,8 28 30 0,0
17.10.2018 16:00:00 10,5 2,5 - - 11 6 - - SW 1018,9 27 42 0,0
17.10.2018 15:00:00 10,4 3,4 - - 15 8 - - WSW 1018,2 27 30 0,0
17.10.2018 14:00:00 11,1 3,2 - - 9 5 - - SW 1017,4 29 42 0,0
17.10.2018 13:00:00 10,5 5,4 - - 5 3 - - SW 1017,0 25 18 0,0
17.10.2018 12:00:00 8,9 4,6 - - 8 4 - - SSW 1016,4 30 12 0,0
17.10.2018 11:00:00 8,5 6,3 - - 8 4 - - SSW 1015,9 30 0 0,0
17.10.2018 10:00:00 8,2 6,5 9,7 10,7 5 3 - - SSW 1014,9 28 0 0,0
17.10.2018 09:00:00 7,4 7,1 - - 4 2 - - SW 1013,7 17 0 0,0
17.10.2018 08:00:00 7,2 6,9 - - 4 2 - - SW 1012,4 19 0 0,0
17.10.2018 07:00:00 7,4 6,2 - - 4 2 - - SW 1011,5 29 0 0,0
17.10.2018 06:00:00 7,9 6,5 - - 4 2 - - W 1010,5 25 0 0,0
17.10.2018 05:00:00 7,6 6,3 - - 8 4 - - SW 1009,8 35 0 0,0
17.10.2018 04:00:00 7,9 6,1 - - 8 4 - - SSW 1009,2 30 0 0,0
17.10.2018 03:00:00 7,8 6,8 - - 9 5 - - SSW 1008,6 35 0 0,0
17.10.2018 02:00:00 8,9 7,8 - - 9 5 - - SSW 1007,9 40 0 0,2
17.10.2018 01:00:00 9,9 9,0 - - 8 4 - - SSW 1007,1 24 - 0,2
17.10.2018 00:00:00 10,5 8,9 - - 13 7 - - SSW 1006,7 10 0 0,0
16.10.2018 23:00:00 11,0 8,1 - - 13 7 - - SW 1006,0 30 0 0,0
16.10.2018 22:00:00 10,9 7,7 - - 11 6 - - SW 1006,1 30 0 0,0
16.10.2018 21:00:00 10,4 7,4 - - 11 6 - - SSW 1005,8 40 0 0,0
16.10.2018 20:00:00 10,3 6,9 - - 11 6 - - SSW 1005,4 40 0 0,0
16.10.2018 19:00:00 10,6 7,0 - - 16 9 - - SSW 1004,8 40 0 0,0
16.10.2018 18:00:00 11,0 7,0 - - 16 9 - - SW 1004,3 50 0 0,0
16.10.2018 17:00:00 12,0 7,4 - - 15 8 - - SW 1004,0 40 12 0,0
16.10.2018 16:00:00 12,3 8,4 - - 18 10 - - SSW 1003,7 60 0 0,0
16.10.2018 15:00:00 11,9 8,1 - - 16 9 48 26 SSW 1003,9 55 0 0,0
16.10.2018 14:00:00 12,0 6,7 - - 21 11 46 25 SW 1003,4 40 0 0,0
16.10.2018 13:00:00 12,2 5,4 - - 18 10 55 30 SSW 1003,4 45 30 0,0
16.10.2018 12:00:00 11,8 5,8 - - 26 14 63 34 SSW 1003,0 45 36 0,0
16.10.2018 11:00:00 11,0 5,6 - - 22 12 57 31 SSW 1004,0 45 18 0,0
16.10.2018 10:00:00 9,2 5,6 9,5 10,7 11 6 - - SSW 1006,4 50 0 0,0
16.10.2018 09:00:00 8,9 5,3 - - 13 7 50 27 SSW 1006,5 40 0 0,0
16.10.2018 08:00:00 8,9 4,5 - - 18 10 - - SSW 1006,5 40 0 0,0
16.10.2018 07:00:00 8,1 4,3 - - 15 8 - - SSW 1007,8 35 0 0,0
16.10.2018 06:00:00 8,0 4,0 - - 18 10 50 27 SW 1008,2 40 0 0,0
16.10.2018 05:00:00 8,2 4,1 - - 11 6 - - SSW 1008,9 40 0 0,0
16.10.2018 04:00:00 8,3 4,1 - - 11 6 - - SW 1010,1 45 0 0,0
16.10.2018 03:00:00 8,4 3,5 - - 13 7 - - SW 1010,7 45 0 0,0
16.10.2018 02:00:00 8,4 2,6 - - 11 6 - - SW 1011,6 55 0 0,0
16.10.2018 01:00:00 8,1 4,0 - - 9 5 - - SW 1012,5 50 - 0,0
16.10.2018 00:00:00 6,9 4,5 - - 4 2 - - SSW 1013,4 35 0 0,0
15.10.2018 23:00:00 3,7 3,3 - - 4 2 - - NE 1014,5 13 0 0,0
15.10.2018 22:00:00 3,5 2,9 - - 2 1 - - SW 1015,0 26 0 0,0
15.10.2018 21:00:00 3,9 2,7 - - 4 2 - - WNW 1015,1 20 0 0,0
15.10.2018 20:00:00 5,4 4,3 - - 2 1 - - W 1015,0 30 0 0,0
15.10.2018 19:00:00 5,7 4,0 - - 2 1 - - ESE 1015,2 18 0 0,0
15.10.2018 18:00:00 7,7 4,9 - - 5 3 - - W 1014,4 18 0 0,0
15.10.2018 17:00:00 9,9 5,8 - - 4 2 - - WSW 1014,2 19 0 0,0
15.10.2018 16:00:00 11,2 3,9 - - 5 3 - - SW 1014,2 19 30 0,0
15.10.2018 15:00:00 11,6 4,0 - - 9 5 - - SSW 1014,1 17 36 0,0
15.10.2018 14:00:00 12,4 5,0 - - 9 5 - - SSW 1014,1 17 60 0,0
15.10.2018 13:00:00 12,0 5,1 - - 9 5 - - S 1014,3 15 60 0,0
15.10.2018 12:00:00 11,0 4,9 - - 9 5 - - SSW 1014,5 15 60 0,0
15.10.2018 11:00:00 9,2 4,8 - - 8 4 - - SSW 1014,8 15 60 0,0
15.10.2018 10:00:00 4,1 4,1 9,7 10,9 4 2 - - S 1015,1 12 6 0,0
15.10.2018 09:00:00 3,1 2,7 - - 2 1 - - NNW 1014,9 14 0 0,0
15.10.2018 08:00:00 3,0 2,6 - - 2 1 - - NNE 1014,2 13 0 0,0
15.10.2018 07:00:00 2,6 2,2 - - 2 1 - - WSW 1013,9 10 0 0,0
15.10.2018 06:00:00 2,8 2,6 - - 2 1 - - N 1013,3 10 0 0,0
15.10.2018 05:00:00 2,7 2,4 - - 4 2 - - NNE 1013,3 12 0 0,2
15.10.2018 04:00:00 2,5 2,3 - - 2 1 - - ENE 1013,6 14 0 0,0
15.10.2018 03:00:00 1,9 1,8 - - 4 2 - - SSW 1013,7 10 0 0,0
15.10.2018 02:00:00 1,6 1,5 - - 4 2 - - WSW 1013,4 9 0 0,0
15.10.2018 01:00:00 1,3 1,1 - - 2 1 - - WSW 1013,4 10 - 0,0
15.10.2018 00:00:00 1,7 1,5 - - 2 1 - - W 1012,9 9 0 0,0
14.10.2018 23:00:00 1,2 0,8 - - 2 1 - - NE 1012,8 8 0 0,0
14.10.2018 22:00:00 2,1 1,7 - - 4 2 - - SW 1012,3 9 0 0,0
14.10.2018 21:00:00 3,2 2,9 - - 5 3 - - W 1011,5 15 0 0,0
14.10.2018 20:00:00 3,0 2,4 - - 2 1 - - S 1011,1 9 0 0,0
14.10.2018 19:00:00 4,0 3,0 - - 4 2 - - W 1010,3 13 0 0,0
14.10.2018 18:00:00 5,8 4,0 - - 5 3 - - W 1009,2 16 0 0,0
14.10.2018 17:00:00 8,7 4,0 - - 2 1 - - WSW 1008,2 18 42 0,0
14.10.2018 16:00:00 11,1 3,0 - - 8 4 - - SSW 1007,8 16 54 0,0
14.10.2018 15:00:00 10,4 3,6 - - 8 4 - - S 1007,9 15 54 0,0
14.10.2018 14:00:00 10,5 5,2 - - 11 6 - - S 1007,8 13 60 0,0
14.10.2018 13:00:00 9,5 5,7 - - 5 3 - - S 1007,7 14 18 0,0
14.10.2018 12:00:00 6,8 5,4 - - 4 2 - - E 1008,0 15 0 0,0
14.10.2018 11:00:00 6,7 5,1 - - 4 2 - - WSW 1007,5 17 0 0,0
14.10.2018 10:00:00 5,1 4,8 10,2 11,0 2 1 - - WSW 1007,5 13 0 0,0
14.10.2018 09:00:00 4,0 3,8 - - 2 1 - - NE 1007,0 8 0 0,0
14.10.2018 08:00:00 4,1 3,5 - - 2 1 - - WSW 1006,1 7 0 0,0
14.10.2018 07:00:00 5,2 4,6 - - 4 2 - - WNW 1005,7 14 0 0,0
14.10.2018 06:00:00 5,3 4,5 - - 2 1 - - W 1004,8 55 0 0,0
14.10.2018 05:00:00 6,6 4,8 - - 4 2 - - SW 1003,9 24 0 0,2
14.10.2018 04:00:00 6,8 6,4 - - 4 2 - - SW 1002,3 30 0 0,0
14.10.2018 03:00:00 7,1 6,9 - - 2 1 - - WSW 1001,1 5 0 0,6
14.10.2018 02:00:00 7,2 6,8 - - 2 1 - - S 1000,2 3,1 0 0,2
14.10.2018 01:00:00 7,3 6,4 - - 2 1 - - SW 998,5 6 - 0,0
14.10.2018 00:00:00 7,6 6,3 - - 5 3 - - N 997,3 5 0 0,6
13.10.2018 23:00:00 8,2 7,0 - - 5 3 - - NNW 995,9 4,2 0 0,8
13.10.2018 22:00:00 8,9 8,4 - - 2 1 - - NE 995,0 3,5 0 2,8
13.10.2018 21:00:00 9,1 8,4 - - 4 2 - - N 994,2 3,7 0 1,6
13.10.2018 20:00:00 8,8 8,2 - - 5 3 - - N 994,1 3,2 0 1,6
13.10.2018 19:00:00 8,5 7,9 - - 9 5 - - N 994,7 3,0 0 2,4
13.10.2018 18:00:00 8,4 7,9 - - 11 6 - - NNE 995,3 3,1 0 2,8
13.10.2018 17:00:00 8,6 8,0 - - 8 4 - - NNE 995,8 1,7 0 2,8
13.10.2018 16:00:00 8,7 8,2 - - 8 4 - - NNE 996,7 4,3 0 1,6
13.10.2018 15:00:00 9,0 8,5 - - 8 4 - - NNE 998,2 5 0 1,0
13.10.2018 14:00:00 9,0 8,3 - - 5 3 - - NNE 999,2 7 0 1,6
13.10.2018 13:00:00 9,0 8,3 - - 4 2 - - NNE 1000,4 5 0 1,6
13.10.2018 12:00:00 9,4 8,5 - - 2 1 - - NNE 1001,1 5 0 1,2
13.10.2018 11:00:00 10,0 7,9 - - 2 1 - - ENE 1001,2 8 0 0,0

tt = Température de l'air
td = dewpoint
tt -20cm = Température de l'air -20cm
tt -100cm = Température de l'air -100cm
ff = Vitesse du vent
fx = gusts
dd = Direction du vent
ppp = reduced air pressure
vv = visibility
sd = Ensoleillement
rr = Quantités de précipitations

stations d'obs. à proximité